ATLAS CENTAUR R/B

基本信息
目录编号:
28385
目录名称:
ATLAS CENTAUR R/B
国际标识:
2004-034B
轨道中心:
EARTH
物体状态:
已陨落(2024-12-31)
发射日期:
2004-08-31 UTC
国别:
美国 (US)
轨道信息
数据来源: 国际轨道数据
星历时间: 2024-12-31T07:50:32+0800
半长轴: 6551.767km
偏心率: 0.0067159
轨道倾角: 57.044°
近地点辐角: 232.081°
升交点赤经: 61.651°
平近点角: 269.671°
近地点: 129.63km
远地点: 217.634km
周期: 87.962分钟
每日圈数: 16.370621
详细信息
发射场:
AFETR
轨道高度:
LEO
数据来源:
AOE Integration Group
参考系:
TEME
时间系统:
UTC
历元类型:
SGP4
2D轨道图
3D轨道图
轨道高度分析图
轨道倾角分析图
轨道综合分析图
查看轨道综合分析图